Über Veery-0E
Group: 3 satellites
Beschreibung wird geladen...
Live-Position
3D-Globus wird geladen...
Nächste Überflüge
Höhenverlauf
Altitude vs Time
uPlot chart will show altitude changes over time
Zweizeiliger Elementsatz
1 59142U 24043AW 26062.35379203 .00104746 00000-0 90522-3 0 9995
2 59142 97.5332 213.1102 0004876 213.2447 146.8508 15.68869333111849
Epoch: 3. März 2026 •
Age: 39 hours
Aktueller Status
Höhe 384.2 km
Geschwindigkeit 7.68 km/s
Subsatellitenpunkt -67.16°S,
5.53°W
Startdatum 4. März 2024
Alter 1.9 years
Typ other
Technische Details
Klassifizierung Payload
Masse 1.00 kg
Trockenmasse 1.00 kg
Gesamtmasse 1.00 kg
Länge 0.10 m
Durchmesser 0.10 m
Spannweite 0.10 m
Form Box
Hersteller CAREWX
Bus-Typ Cubesat 1U
Phasenstatus In Orbit
Besitzer/Staat CAREWX/US
Große Konstellationen
Loading constellations...